Regional Weather Roundup
Issued by NWS

Home | Current Version | Previous Version | Graphics & Text | Print | Product List | Glossary On
Versions: 1 2 3 4 5 6 7 8 9 10 11 12 13 14 15 16 17 18 19 20 21 22 23 24 25 26 27 28 29 30 31 32 33 34 35 36 37 38 39 40 41 42 43 44 45 46 47 48 49 50
000
ASUS43 KOAX 271110
RWRNE

WEATHER ROUNDUP FOR NEBRASKA
NATIONAL WEATHER SERVICE OMAHA NE
500 AM CST TUE JAN 27 2015

NOTES: SATELLITE DATA IS BEING USED TO AUGMENT CLOUD COVER ABOVE
       12000 FEET.
       "FAIR" INDICATES FEW OR NO CLOUDS BELOW 12,000 FEET WITH NO
       SIGNIFICANT WEATHER AND/OR OBSTRUCTIONS TO VISIBILITY.

  * THESE STATIONS DO NOT REPORT WEATHER SUCH AS RAIN...SNOW OR FOG.

NEZ001>004-019>022-054>056-271200-
NEBRASKA PANHANDLE

CITY           SKY/WX    TMP DP  RH WIND       PRES   REMARKS
SCOTTSBLUFF    CLEAR     32  27  81 NW5       30.07F WCI  27
ALLIANCE       CLEAR     31  26  82 SW8       30.05F WCI  23
CHADRON        CLEAR     32  26  78 SW6       30.03F WCI  26
KIMBALL        CLEAR     36  25  65 W10       30.09F WCI  28
SIDNEY         CLEAR     33  26  75 NW9       30.09F WCI  25
$$

NEZ057>060-069>072-079>082-271200-
SOUTHWEST NEBRASKA

CITY           SKY/WX    TMP DP  RH WIND       PRES   REMARKS
NORTH PLATTE   CLEAR     26  24  92 NW5       30.05F WCI  20
IMPERIAL       CLEAR     30  24  78 CALM      30.07F
LEXINGTON      CLEAR     30  27  88 W6        30.04S WCI  24
MCCOOK         CLEAR     32  28  85 SW5       30.07F WCI  27
OGALLALA       PTCLDY    31  28  88 W7        30.06F WCI  24
$$

NEZ005>010-023>029-035>040-094-271200-
NORTH CENTRAL NEBRASKA

CITY           SKY/WX    TMP DP  RH WIND       PRES   REMARKS
VALENTINE      CLEAR     30  28  92 SW13      29.98F WCI  20
AINSWORTH      CLEAR     36  31  82 SW7       29.98F WCI  30
BROKEN BOW     CLEAR     31  26  82 CALM      30.01F
O`NEILL        CLEAR     32  29  88 S7        30.00F WCI  26
ORD            CLEAR     27  23  85 CALM      30.02F
THEDFORD       CLEAR     37  32  80 CALM      30.02F
$$

NEZ041-046>049-061>064-073>077-083>087-271200-
SOUTH CENTRAL NEBRASKA

CITY           SKY/WX    TMP DP  RH WIND       PRES   REMARKS
GRAND ISLAND   CLEAR     29  27  92 S6        30.06S WCI  23
AURORA         CLEAR     30  28  90 S3        30.06R
HASTINGS       CLEAR     30  24  78 S3        30.05F
HEBRON         CLEAR     24  20  86 CALM      30.09R
HOLDREGE       FAIR      38  29  71 SW5       30.04F WCI  34
KEARNEY *      PTCLDY    28  25  86 S3        30.05S
YORK           CLEAR     32  27  80 CALM      30.07S
$$

NEZ011>018-030>034-042>045-271200-
NORTHEAST NEBRASKA

CITY           SKY/WX    TMP DP  RH WIND       PRES   REMARKS
NORFOLK        CLEAR     28  25  88 CALM      30.04F
ALBION         PTCLDY    26  23  88 CALM      30.05S
BLAIR          CLEAR     36  33  88 NE7       30.06F WCI  31
COLUMBUS *     CLEAR     23  16  74 CALM      30.08S
FREMONT        CLEAR     30  29  94 CALM      30.08R
TEKAMAH        CLEAR     28  25  88 CALM      30.08S
WAYNE          CLEAR     25  24  93 CALM      30.06F
$$

NEZ050>053-065>068-078-088>093-271200-
SOUTHEAST NEBRASKA

CITY           SKY/WX    TMP DP  RH WIND       PRES   REMARKS
LINCOLN        PTCLDY    24  20  84 CALM      30.10R
OMAHA EPPLEY   CLEAR     29  28  96 CALM      30.09R
BEATRICE       PTCLDY    26  23  88 CALM      30.09S
FALLS CITY     CLEAR     27  24  89 CALM      30.09R
NEBRASKA CITY  CLEAR     33  30  86 CALM      30.09R
PLATTSMOUTH    PTCLDY    33  30  90 CALM      30.08R
$$

NEZ044-045-051>053-067-271200-
OMAHA AREA

CITY           SKY/WX    TMP DP  RH WIND       PRES   REMARKS
OMAHA EPPLEY   CLEAR     29  28  96 CALM      30.09R
BLAIR          CLEAR     36  33  88 NE7       30.06F WCI  31
FREMONT        CLEAR     30  29  94 CALM      30.08R
MILLARD        CLEAR     29  27  94 CALM      30.08F
OFFUTT AFB     CLEAR     27  26  95 NW2       30.08R
PLATTSMOUTH    PTCLDY    33  30  90 CALM      30.08R
WAHOO          FAIR      28  25  89 CALM      30.08S
$$


USA.gov is the U.S. government's official web portal to all federal, state and local government web resources and services.